| time (UTC) | temp C | wind direction | speed KPH | gust KPH | rain 1hr cm | rain 24hr cm | rain mn cm | humidity % | barometer mb |
| 20260507103030 | 26 | 5 | 6.4 | 12.9 | 0.00 | 0.00 | 0.00 | 95 | 1009.8 |
| 20260507101527 | 26 | 66 | 3.2 | 11.3 | 0.00 | 0.00 | 0.00 | 95 | 1010.2 |
| 20260507100033 | 26 | 51 | 4.8 | 9.7 | 0.00 | 0.00 | 0.00 | 95 | 1010.4 |
| 20260507094530 | 26 | 53 | 3.2 | 8.0 | 0.00 | 0.00 | 0.00 | 94 | 1010.7 |
| 20260507093028 | 26 | 0 | 1.6 | 6.4 | 0.00 | 0.00 | 0.00 | 94 | 1010.5 |
| 20260507091529 | 26 | 0 | 1.6 | 8.0 | 0.00 | 0.00 | 0.00 | 94 | 1010.8 |
| 20260507090029 | 26 | 42 | 1.6 | 6.4 | 0.00 | 0.00 | 0.00 | 94 | 1010.3 |
| 20260507084527 | 26 | 82 | 0.0 | 6.4 | 0.00 | 0.00 | 0.00 | 94 | 1010.2 |
| 20260507083028 | 26 | 74 | 1.6 | 6.4 | 0.00 | 0.00 | 0.00 | 94 | 1010.3 |
| 20260507081528 | 26 | 94 | 3.2 | 6.4 | 0.00 | 0.00 | 0.00 | 94 | 1010.5 |
| 20260507080037 | 26 | 97 | 0.0 | 4.8 | 0.00 | 0.00 | 0.00 | 94 | 1010.9 |
| 20260507074530 | 26 | 90 | 3.2 | 9.7 | 0.00 | 0.00 | 0.00 | 93 | 1010.6 |
| 20260507073026 | 26 | 117 | 1.6 | 6.4 | 0.00 | 0.00 | 0.00 | 93 | 1010.7 |
| 20260507071557 | 26 | 110 | 3.2 | 9.7 | 0.00 | 0.00 | 0.00 | 93 | 1010.8 |
| 20260507070032 | 26 | 101 | 6.4 | 12.9 | 0.00 | 0.00 | 0.00 | 94 | 1010.6 |
| 20260507064527 | 26 | 86 | 3.2 | 9.7 | 0.00 | 0.00 | 0.00 | 94 | 1010.4 |
| 20260507063032 | 26 | 122 | 1.6 | 12.9 | 0.00 | 0.00 | 0.00 | 94 | 1010.6 |
| 20260507061529 | 26 | 89 | 3.2 | 12.9 | 0.00 | 0.00 | 0.00 | 94 | 1010.6 |
| 20260507060035 | 26 | 112 | 1.6 | 6.4 | 0.00 | 0.00 | 0.00 | 94 | 1010.6 |
| 20260507054528 | 26 | 0 | 3.2 | 11.3 | 0.00 | 0.00 | 0.00 | 94 | 1010.8 |
| 20260507053044 | 26 | 0 | 3.2 | 12.9 | 0.00 | 0.00 | 0.00 | 94 | 1010.8 |
| 20260507051539 | 26 | 109 | 4.8 | 11.3 | 0.00 | 0.00 | 0.00 | 94 | 1010.7 |
| 20260507050034 | 26 | 101 | 4.8 | 12.9 | 0.00 | 0.00 | 0.00 | 94 | 1010.7 |
| 20260507044530 | 26 | 111 | 3.2 | 11.3 | 0.00 | 0.00 | 0.00 | 94 | 1010.7 |
| 20260507043028 | 26 | 67 | 4.8 | 12.9 | 0.00 | 0.00 | 0.00 | 94 | 1010.2 |
| 20260507041529 | 26 | 109 | 4.8 | 12.9 | 0.00 | 0.00 | 0.00 | 94 | 1010.3 |
| 20260507040030 | 26 | 87 | 6.4 | 14.5 | 0.00 | 0.00 | 0.00 | 94 | 1010.2 |
| 20260507034535 | 26 | 104 | 3.2 | 12.9 | 0.00 | 0.00 | 0.00 | 94 | 1010.0 |
| 20260507033039 | 26 | 107 | 4.8 | 12.9 | 0.00 | 0.00 | 0.00 | 94 | 1009.7 |
| 20260507031530 | 26 | 144 | 8.0 | 16.1 | 0.00 | 0.00 | 0.00 | 93 | 1009.5 |
| 20260507030029 | 26 | 93 | 4.8 | 16.1 | 0.00 | 0.00 | 0.00 | 93 | 1009.1 |
| 20260507024533 | 27 | 86 | 8.0 | 14.5 | 0.00 | 0.00 | 0.00 | 93 | 1009.0 |
| 20260507023033 | 27 | 96 | 9.7 | 19.3 | 0.00 | 0.00 | 0.00 | 93 | 1008.8 |
| 20260507021532 | 27 | 105 | 4.8 | 14.5 | 0.00 | 0.00 | 0.00 | 93 | 1008.8 |
| 20260507020029 | 27 | 98 | 6.4 | 22.5 | 0.00 | 0.00 | 0.00 | 93 | 1008.5 |
| 20260507014528 | 27 | 90 | 9.7 | 20.9 | 0.00 | 0.00 | 0.00 | 92 | 1008.3 |
| 20260507013029 | 27 | 132 | 9.7 | 22.5 | 0.00 | 0.00 | 0.00 | 92 | 1007.9 |
| 20260507011537 | 27 | 76 | 12.9 | 24.1 | 0.00 | 0.00 | 0.00 | 91 | 1007.7 |
| 20260507010028 | 27 | 93 | 9.7 | 27.4 | 0.00 | 0.00 | 0.00 | 90 | 1007.5 |
| 20260507004536 | 27 | 92 | 12.9 | 20.9 | 0.00 | 0.00 | 0.00 | 89 | 1007.2 |
| 20260507003030 | 28 | 103 | 9.7 | 24.1 | 0.00 | 0.00 | 0.00 | 87 | 1007.1 |
| 20260507001528 | 28 | 103 | 9.7 | 24.1 | 0.00 | 0.00 | 0.00 | 86 | 1007.0 |
| 20260507000029 | 29 | 78 | 11.3 | 24.1 | 0.00 | 0.00 | 0.00 | 85 | 1006.9 |
| 20260506234530 | 29 | 108 | 11.3 | 24.1 | 0.00 | 0.00 | 0.00 | 84 | 1006.7 |
| 20260506233030 | 30 | 78 | 14.5 | 27.4 | 0.00 | 0.00 | 0.00 | 83 | 1006.6 |
| 20260506231530 | 30 | 115 | 12.9 | 30.6 | 0.00 | 0.00 | 0.00 | 83 | 1006.3 |
| 20260506230027 | 31 | 111 | 16.1 | 32.2 | 0.00 | 0.00 | 0.00 | 81 | 1006.0 |
| 20260506224530 | 32 | 92 | 16.1 | 27.4 | 0.00 | 0.00 | 0.00 | 77 | 1005.9 |
| 20260506223028 | 32 | 99 | 16.1 | 27.4 | 0.00 | 0.00 | 0.00 | 77 | 1005.8 |
| 20260506221530 | 32 | 139 | 11.3 | 25.7 | 0.00 | 0.00 | 0.00 | 74 | 1005.9 |
| 20260506220037 | 33 | 77 | 14.5 | 27.4 | 0.00 | 0.00 | 0.00 | 72 | 1005.9 |
| 20260506214528 | 33 | 156 | 11.3 | 22.5 | 0.00 | 0.00 | 0.00 | 69 | 1005.8 |
| 20260506213032 | 34 | 188 | 8.0 | 19.3 | 0.00 | 0.00 | 0.00 | 66 | 1005.9 |
| 20260506211532 | 33 | 176 | 9.7 | 22.5 | 0.00 | 0.00 | 0.00 | 68 | 1005.8 |
| 20260506210032 | 33 | 177 | 12.9 | 29.0 | 0.00 | 0.00 | 0.00 | 69 | 1005.9 |
| 20260506204530 | 33 | 159 | 11.3 | 24.1 | 0.00 | 0.00 | 0.00 | 69 | 1006.1 |
| 20260506203029 | 33 | 166 | 11.3 | 27.4 | 0.00 | 0.00 | 0.00 | 70 | 1006.5 |
| 20260506201530 | 33 | 184 | 8.0 | 20.9 | 0.00 | 0.00 | 0.00 | 71 | 1006.8 |
| 20260506200030 | 32 | 159 | 12.9 | 24.1 | 0.00 | 0.00 | 0.00 | 72 | 1006.9 |
| 20260506194528 | 32 | 199 | 12.9 | 27.4 | 0.00 | 0.00 | 0.00 | 73 | 1007.2 |
| 20260506193028 | 32 | 120 | 11.3 | 30.6 | 0.00 | 0.00 | 0.00 | 73 | 1007.2 |
| 20260506191528 | 32 | 148 | 14.5 | 30.6 | 0.00 | 0.00 | 0.00 | 72 | 1007.3 |
| 20260506190030 | 32 | 157 | 11.3 | 27.4 | 0.00 | 0.00 | 0.00 | 74 | 1007.4 |
| 20260506184529 | 32 | 186 | 16.1 | 27.4 | 0.00 | 0.00 | 0.00 | 75 | 1007.5 |
| 20260506183030 | 32 | 202 | 14.5 | 40.2 | 0.00 | 0.00 | 0.00 | 76 | 1007.6 |
| 20260506181528 | 31 | 140 | 11.3 | 32.2 | 0.00 | 0.00 | 0.00 | 77 | 1007.9 |
| 20260506180030 | 31 | 177 | 16.1 | 30.6 | 0.00 | 0.00 | 0.00 | 79 | 1008.0 |
| 20260506174529 | 30 | 162 | 14.5 | 33.8 | 0.00 | 0.00 | 0.00 | 79 | 1008.2 |
| 20260506173028 | 30 | 149 | 12.9 | 30.6 | 0.00 | 0.00 | 0.00 | 81 | 1008.3 |
| 20260506171528 | 30 | 143 | 9.7 | 25.7 | 0.00 | 0.00 | 0.00 | 81 | 1008.5 |
| 20260506170028 | 30 | 155 | 12.9 | 27.4 | 0.00 | 0.00 | 0.00 | 81 | 1008.4 |
| 20260506164530 | 30 | 175 | 14.5 | 29.0 | 0.00 | 0.00 | 0.00 | 81 | 1008.5 |
| 20260506163032 | 29 | 117 | 12.9 | 29.0 | 0.00 | 0.00 | 0.00 | 82 | 1008.5 |
| 20260506161526 | 29 | 157 | 12.9 | 29.0 | 0.00 | 0.00 | 0.00 | 82 | 1008.4 |
| 20260506160028 | 28 | 166 | 8.0 | 19.3 | 0.00 | 0.00 | 0.00 | 85 | 1008.2 |
| 20260506154532 | 28 | 157 | 11.3 | 24.1 | 0.00 | 0.00 | 0.00 | 86 | 1008.2 |
| 20260506153029 | 28 | 177 | 9.7 | 20.9 | 0.00 | 0.00 | 0.00 | 87 | 1008.2 |
| 20260506151529 | 27 | 148 | 6.4 | 19.3 | 0.00 | 0.00 | 0.00 | 89 | 1008.2 |
| 20260506150027 | 27 | 144 | 9.7 | 16.1 | 0.00 | 0.00 | 0.00 | 89 | 1008.5 |
| 20260506144534 | 27 | 146 | 6.4 | 14.5 | 0.00 | 0.00 | 0.00 | 89 | 1008.7 |
| 20260506143031 | 27 | 162 | 9.7 | 17.7 | 0.00 | 0.00 | 0.00 | 90 | 1008.7 |
| 20260506141535 | 27 | 182 | 4.8 | 14.5 | 0.00 | 0.00 | 0.00 | 91 | 1008.8 |
| 20260506140030 | 26 | 163 | 6.4 | 14.5 | 0.00 | 0.00 | 0.00 | 91 | 1008.8 |
| 20260506134527 | 26 | 169 | 6.4 | 12.9 | 0.00 | 0.00 | 0.00 | 92 | 1008.7 |
| 20260506133028 | 26 | 198 | 8.0 | 17.7 | 0.00 | 0.00 | 0.00 | 92 | 1008.7 |
| 20260506131528 | 26 | 190 | 8.0 | 16.1 | 0.00 | 0.00 | 0.00 | 92 | 1008.4 |
| 20260506130030 | 26 | 165 | 6.4 | 17.7 | 0.00 | 0.00 | 0.00 | 93 | 1008.2 |
| 20260506124529 | 26 | 150 | 4.8 | 20.9 | 0.00 | 0.00 | 0.00 | 93 | 1007.7 |
| 20260506123029 | 26 | 144 | 6.4 | 16.1 | 0.00 | 0.00 | 0.00 | 94 | 1007.6 |
| 20260506121529 | 25 | 149 | 8.0 | 17.7 | 0.00 | 0.00 | 0.00 | 94 | 1007.4 |
| 20260506120031 | 25 | 131 | 9.7 | 24.1 | 0.00 | 0.00 | 0.00 | 94 | 1006.9 |
| 20260506114527 | 25 | 165 | 12.9 | 24.1 | 0.00 | 0.00 | 0.00 | 95 | 1006.7 |
| 20260506113030 | 25 | 127 | 9.7 | 25.7 | 0.00 | 0.00 | 0.00 | 95 | 1006.5 |
| 20260506111527 | 25 | 162 | 11.3 | 24.1 | 0.00 | 0.00 | 0.00 | 95 | 1006.2 |
| 20260506110027 | 25 | 126 | 12.9 | 24.1 | 0.00 | 0.00 | 0.00 | 95 | 1006.0 |
| 20260506104529 | 25 | 129 | 11.3 | 22.5 | 0.00 | 0.00 | 0.00 | 94 | 1005.9 |